Regional Weather Roundup
Issued by NWS

Home | Current Version | Previous Version | Graphics & Text | Print | Product List | Glossary On
Versions: 1 2 3 4 5 6 7 8 9 10 11 12 13 14 15 16 17 18 19 20 21 22 23 24 25 26 27
000
ASUS45 KBOU 031507
RWRCO

WEATHER ROUNDUP FOR COLORADO
NATIONAL WEATHER SERVICE DENVER/BOULDER CO
900 AM MDT TUE MAY 03 2016

NOTE: "FAIR" INDICATES FEW OR NO CLOUDS BELOW 12000 FEET WITH NO
SIGNIFICANT WEATHER AND/OR OBSTRUCTIONS TO VISIBILITY.

COZ001>005-013-030-031-031600-
...NORTHWEST COLORADO...

CITY           SKY/WX    TMP DP  RH WIND       PRES   REMARKS
CRAIG          FAIR      41  30  65 CALM      30.30S
HAYDEN         FAIR      45  25  45 SE6       30.30R
MEEKER         FAIR      44  28  53 VRB3      30.29S
MOUNT WERNER   NOT AVBL
STEAMBOAT SPGS FAIR      39  23  53 CALM      30.30S
WALDEN         FAIR      37  19  48 CALM      30.34R
$$

COZ006>008-011-031600-
...WEST CENTRAL VALLEYS...

CITY           SKY/WX    TMP DP  RH WIND       PRES   REMARKS
GRAND JUNCTION FAIR      51  33  50 SE7       30.24R
MONTROSE       FAIR      50  32  50 CALM      30.28S
EAGLE          SUNNY     39  27  60 CALM      30.33S
RIFLE          FAIR      47  32  56 N3        30.27S
DELTA          NOT AVBL
NUCLA          NOT AVBL
$$

COZ017>023-064>068-031600-
...SOUTHWEST COLORADO...

CITY           SKY/WX    TMP DP  RH WIND       PRES   REMARKS
DURANGO        FAIR      45  34  65 CALM      30.24S
CORTEZ         FAIR      46  34  62 CALM      30.24R
PAGOSA SPRINGS FAIR      45  32  60 CALM      30.27R
TELLURIDE      NOT AVBL
WOLF CREEK PAS FAIR      30  19  64 NE12      30.39S WCI  21
$$

COZ009-010-012-014-032>034-037-058>063-031600-
...CENTRAL COLORADO...

CITY           SKY/WX    TMP DP  RH WIND       PRES   REMARKS
ASPEN          FAIR      44  23  43 CALM      30.29S
BUENA VISTA    FAIR      44  22  41 SE3       30.28S
COPPER MTN     NOT AVBL
BERTHOUD PASS  FAIR      19  10  68 N6        30.38R WCI  11
COTTONWOOD PAS FAIR      43  18  36 CALM      30.33R
GUNNISON       FAIR      37  27  65 CALM      30.33S
KREMMLING      FAIR      37  25  60 CALM      30.34S
LEADVILLE      FAIR      35  14  42 N16       30.32R WCI  25
MONARCH PASS   FAIR      28  18  64 MISG      30.48R
SALIDA         NOT AVBL
SUNLIGHT       FAIR      36  19  51 N3          N/A
WILKERSON PASS FAIR      32  18  55 CALM      30.38R
$$

COZ069>075-031600-
...SAN LUIS VALLEY/SANGRE DE CRISTO MOUNTAINS...

CITY           SKY/WX    TMP DP  RH WIND       PRES   REMARKS
ALAMOSA        FAIR      42  35  76 S3        30.27R
LA VETA PASS   FAIR      36  28  75 E7        30.33R
SAGUACHE       FAIR      46  28  49 NW10      30.28R
$$

COZ035-036-038>040-031600-
...NORTHERN COLORADO FRONT RANGE...

CITY           SKY/WX    TMP DP  RH WIND       PRES   REMARKS
DENVER INTL AP FAIR      53  29  39 NW15      30.22R
DMNS CITY PARK   N/A     57  28  33 N12G21    30.23S
AURORA         FAIR      52  31  44 NW14G21   30.23S
FRONT RANGE AP MOSUNNY   52  30  43 NW15      30.22S
ERIE MUNI ARPT FAIR      56  29  34 N10G17    30.22S
BOULDER MUN AP FAIR      55  27  33 N10       30.22R
CENTENNIAL     FAIR      51  29  42 N14G22    30.23R
BROOMFIELD     MOSUNNY   55  27  33 N15       30.24R
FORT COLLINS   FAIR      55  34  44 N16       30.23R
LONGMONT       FAIR      60  31  33 N12G18    30.23R
$$

COZ041-046-047-076>085-087-088-031600-
...PIKES PEAK/PALMER DIVIDE AND SOUTHERN FOOTHILLS...

CITY           SKY/WX    TMP DP  RH WIND       PRES   REMARKS
COLO. SPRINGS  FAIR      53  26  35 N18G24    30.24S
A. F. ACADEMY  FAIR      50  27  40 N17G24    30.24R
SCHRIEVER AFB  NOT AVBL
ELLICOTT       FAIR     N/A N/A N/A N25G32    30.19F
FALCON         FAIR      48  26  42 NW17G28   30.25R
FORT CARSON    FAIR      54  28  36 N20G28    30.22S
LIMON          FAIR      48  35  60 N23G30    30.18R
MONUMENT HILL  FAIR      43  30  61 NW14      30.27R
TRINIDAD       FAIR      50  33  52 NW12      30.24R
$$

COZ042>045-048>051-090-091-031600-
...NORTHEAST COLORADO...

CITY           SKY/WX    TMP DP  RH WIND       PRES   REMARKS
GREELEY ARPT   FAIR      57  37  47 NW15      30.20S
AKRON          FAIR      49  36  61 N15       30.17R
BURLINGTON     FAIR      52  36  54 N16       30.12R
WRAY           NOT AVBL
STERLING       FAIR      52  37  58 N13       30.15S
HOLYOKE        NOT AVBL
FORT MORGAN    FAIR      55  34  45 N16       30.19S
$$

COZ086-089-092>099-031600-
...SOUTHEAST COLORADO...

CITY           SKY/WX    TMP DP  RH WIND       PRES   REMARKS
PUEBLO         FAIR      60  30  32 N18       30.20S
LA JUNTA       FAIR      60  35  39 NW13      30.16S
LAMAR          CLOUDY    55  38  52 W12       30.11S
SPRINGFIELD      N/A     57  35  43 NW17G24   30.13R
$$




USA.gov is the U.S. government's official web portal to all federal, state and local government web resources and services.